Location: Bonnesvalyn
(49.1218°N, 3.3177°E)
Time: 22:10:20
(UTC+00:00)

Iridium 2 - Pass Details

Date: 09 February 2023
Orbit: 468 x 477 km, 85.5° (Epoch: 28 March)

Event Time Altitude Azimuth Distance (km) Brightness Sun altitude
Rises 18:39:45 0° 354° (N) 2,548 7.3 -17.3°
Reaches altitude 10° 18:41:50 10° 354° (N) 1,668 6.3 -17.6°
Maximum altitude 18:45:28 84° 266° (W) 493 3.5 -18.2°
Drops below altitude 10° 18:49:07 10° 178° (S) 1,670 6.3 -18.8°
Sets 18:51:13 0° 178° (S) 2,551 7.2 -19.2°
